M I D A S
Marine Information and Data Acquisition System
Tripno 1099 of the Zeeleeuw from 2006-03-30 06:32:14 to 2006-03-30 10:47:52
Back to CruiseResearch ActivitiesStationsMapUnderway DataData graphs

EquipmentUnitsComments
TimeDGPSUTC
LatitudeDGPSDM.mWGS84
LongitudeDGPSDM.mWGS84
SpeedMeteo Stationm/sRelative wind speed
DirectionMeteo StationdegRelative wind direction
TemperatureMeteo Stationdeg CelciusAir temperature
PressureMeteo StationPaAtmospheric pressure
HumidityMeteo Station%Relative humidity
Missing or incorrect values are displayed as -999
Metereological data collected by the RV Zeeleeuw from 2006-03-30 06:32:05 to 2006-03-30 11:00:34
Time Latitude Longitude Speed Direction Temperature Pressure Humidity
2006-03-30 06:33 51°13.613 2°56.051 -999 172 10.4 99980 94
2006-03-30 06:34 51°13.632 2°55.982 -999 146 10.4 99970 94
2006-03-30 06:35 51°13.64 2°55.949 -999 162 10.3 99980 94
2006-03-30 06:36 51°13.667 2°55.866 -999 163 10.3 99970 94
2006-03-30 06:37 51°13.7 2°55.776 -999 161 10.2 99970 94
2006-03-30 06:38 51°13.716 2°55.748 -999 195 10.2 99970 95
2006-03-30 06:39 51°13.717 2°55.74 -999 226 10.2 99980 95
2006-03-30 06:40 51°13.722 2°55.721 -999 291 10.2 99980 95
2006-03-30 06:41 51°13.797 2°55.657 -999 347 10.2 99970 95
2006-03-30 06:42 51°13.908 2°55.578 -999 312 10.2 99980 95
2006-03-30 06:43 51°14.018 2°55.5 -999 301 10.2 99970 95
2006-03-30 06:44 51°14.128 2°55.416 -999 2 10.2 99980 95
2006-03-30 06:45 51°14.238 2°55.296 -999 314 10.1 99960 95
2006-03-30 06:46 51°14.336 2°55.124 -999 332 9.9 99950 95
2006-03-30 06:47 51°14.458 2°54.949 -999 299 9.7 99930 95
2006-03-30 06:48 51°14.617 2°54.776 -999 293 9.6 99930 95
2006-03-30 06:49 51°14.805 2°54.658 -999 287 9.6 99930 95
2006-03-30 06:50 51°14.994 2°54.532 -999 294 9.5 99930 96
2006-03-30 06:51 51°15.177 2°54.408 -999 286 9.4 99930 96
2006-03-30 06:52 51°15.37 2°54.308 -999 291 9.4 99940 96
2006-03-30 06:53 51°15.561 2°54.161 -999 289 9.3 99930 96
2006-03-30 06:54 51°15.755 2°54.009 -999 284 9.3 99900 96
2006-03-30 06:55 51°15.945 2°53.844 -999 293 9.3 99900 96
2006-03-30 06:56 51°16.134 2°53.684 -999 287 9.2 99890 97
2006-03-30 06:57 51°16.321 2°53.508 -999 288 9.2 99900 97
2006-03-30 06:58 51°16.504 2°53.324 -999 290 9.2 99900 97
2006-03-30 06:59 51°16.684 2°53.133 -999 291 9.1 99890 97
2006-03-30 07:00 51°16.863 2°52.953 -999 291 9.2 99900 97
2006-03-30 07:01 51°17.037 2°52.783 -999 283 9.2 99900 97
2006-03-30 07:02 51°17.23 2°52.647 -999 289 9.1 99900 97
2006-03-30 07:03 51°17.424 2°52.51 -999 289 9.1 99890 97
2006-03-30 07:04 51°17.624 2°52.395 -999 282 9.1 99900 97
2006-03-30 07:05 51°17.83 2°52.344 -999 275 9.1 99920 97
2006-03-30 07:06 51°18.04 2°52.324 -999 263 9 99930 97
2006-03-30 07:07 51°18.25 2°52.32 -999 267 9 99920 98
2006-03-30 07:08 51°18.459 2°52.314 -999 258 9 99930 98
2006-03-30 07:09 51°18.671 2°52.299 -999 269 9 99920 98
2006-03-30 07:10 51°18.883 2°52.282 -999 267 9 99920 98
2006-03-30 07:11 51°19.094 2°52.266 -999 265 9 99920 98
2006-03-30 07:12 51°19.306 2°52.247 -999 272 9 99920 98
2006-03-30 07:13 51°19.516 2°52.228 -999 258 9 99920 98
2006-03-30 07:14 51°19.724 2°52.212 -999 263 9 99920 98
2006-03-30 07:15 51°19.934 2°52.19 -999 262 9 99910 98
2006-03-30 07:16 51°20.145 2°52.182 -999 268 8.9 99900 98
2006-03-30 07:17 51°20.354 2°52.183 -999 266 8.9 99910 98
2006-03-30 07:18 51°20.563 2°52.178 -999 262 8.9 99910 98
2006-03-30 07:19 51°20.772 2°52.179 -999 259 8.9 99910 98
2006-03-30 07:20 51°20.98 2°52.191 -999 246 8.9 99920 98
2006-03-30 07:21 51°21.184 2°52.242 -999 255 8.9 99910 98
2006-03-30 07:22 51°21.385 2°52.308 -999 253 8.9 99930 98
2006-03-30 07:23 51°21.587 2°52.381 -999 251 8.9 99910 98
2006-03-30 07:24 51°21.783 2°52.471 -999 257 8.8 99930 98
2006-03-30 07:25 51°21.978 2°52.568 -999 248 8.7 99920 98
2006-03-30 07:26 51°22.177 2°52.66 -999 258 8.7 99930 98
2006-03-30 07:27 51°22.377 2°52.751 -999 255 8.7 99920 98
2006-03-30 07:28 51°22.576 2°52.848 -999 244 8.7 99930 98
2006-03-30 07:29 51°22.775 2°52.944 -999 251 8.7 99930 98
2006-03-30 07:30 51°22.974 2°53.048 -999 256 8.7 99940 98
2006-03-30 07:31 51°23.174 2°53.147 -999 231 8.6 99930 98
2006-03-30 07:32 51°23.37 2°53.237 -999 254 8.6 99930 98
2006-03-30 07:33 51°23.563 2°53.335 -999 260 8.6 99940 98
2006-03-30 07:34 51°23.756 2°53.437 -999 252 8.5 99930 98
2006-03-30 07:35 51°23.946 2°53.526 -999 250 8.5 99930 98
2006-03-30 07:36 51°24.139 2°53.63 -999 265 8.4 99950 98
2006-03-30 07:37 51°24.333 2°53.701 -999 272 8.4 99940 98
2006-03-30 07:38 51°24.531 2°53.762 -999 262 8.4 99930 98
2006-03-30 07:39 51°24.729 2°53.824 -999 263 8.4 99940 98
2006-03-30 07:40 51°24.924 2°53.895 -999 254 8.4 99930 98
2006-03-30 07:41 51°25.123 2°53.959 -999 264 8.4 99930 99
2006-03-30 07:42 51°25.324 2°54.026 -999 266 8.3 99940 99
2006-03-30 07:43 51°25.521 2°54.096 -999 257 8.3 99920 99
2006-03-30 07:44 51°25.722 2°54.156 -999 261 8.3 99940 99
2006-03-30 07:45 51°25.922 2°54.221 -999 256 8.3 99930 99
2006-03-30 07:46 51°26.121 2°54.274 -999 257 8.3 99920 99
2006-03-30 07:47 51°26.316 2°54.344 -999 260 8.2 99930 99
2006-03-30 07:48 51°26.512 2°54.41 -999 249 8.2 99920 99
2006-03-30 07:49 51°26.706 2°54.479 -999 244 8.1 99930 99
2006-03-30 07:50 51°26.896 2°54.548 -999 246 8.2 99940 99
2006-03-30 07:51 51°27.087 2°54.622 -999 268 8.2 99940 99
2006-03-30 07:52 51°27.28 2°54.692 -999 262 8.2 99950 99
2006-03-30 07:53 51°27.477 2°54.759 -999 259 8.1 99950 99
2006-03-30 07:54 51°27.673 2°54.825 -999 252 8.1 99940 99
2006-03-30 07:55 51°27.866 2°54.893 -999 250 8.1 99930 99
2006-03-30 07:56 51°28.06 2°54.955 -999 251 8.1 99920 99
2006-03-30 07:57 51°28.25 2°55.033 -999 238 8.1 99920 99
2006-03-30 07:58 51°28.44 2°55.107 -999 250 8 99920 99
2006-03-30 07:59 51°28.627 2°55.191 -999 245 8 99940 99
2006-03-30 08:00 51°28.816 2°55.279 -999 249 8 99930 99
2006-03-30 08:01 51°29.005 2°55.362 -999 248 8 99940 99
2006-03-30 08:02 51°29.192 2°55.456 -999 241 8 99930 99
2006-03-30 08:03 51°29.38 2°55.543 -999 254 8 99940 99
2006-03-30 08:04 51°29.573 2°55.633 -999 247 8 99940 99
2006-03-30 08:05 51°29.764 2°55.728 -999 262 8 99940 99
2006-03-30 08:06 51°29.96 2°55.809 -999 254 7.9 99940 99
2006-03-30 08:07 51°30.153 2°55.895 -999 261 7.9 99940 99
2006-03-30 08:08 51°30.347 2°55.97 -999 246 7.9 99930 99
2006-03-30 08:09 51°30.54 2°56.048 -999 263 7.9 99940 99
2006-03-30 08:10 51°30.731 2°56.135 -999 248 7.9 99930 99
2006-03-30 08:11 51°30.92 2°56.217 -999 240 7.9 99930 99
2006-03-30 08:12 51°31.107 2°56.294 -999 261 7.9 99940 99
2006-03-30 08:13 51°31.296 2°56.373 -999 258 7.9 99940 99
2006-03-30 08:14 51°31.485 2°56.457 -999 259 7.8 99930 99
2006-03-30 08:15 51°31.669 2°56.547 -999 255 7.8 99930 99
2006-03-30 08:16 51°31.852 2°56.631 -999 249 7.8 99920 99
2006-03-30 08:17 51°32.028 2°56.748 -999 238 7.9 99940 99
2006-03-30 08:18 51°32.196 2°56.912 -999 235 7.9 99940 99
2006-03-30 08:19 51°32.359 2°57.065 -999 237 7.8 99930 99
2006-03-30 08:20 51°32.523 2°57.22 -999 226 7.9 99940 99
2006-03-30 08:21 51°32.688 2°57.385 -999 226 7.9 99940 99
2006-03-30 08:22 51°32.819 2°57.612 -999 203 8.2 99950 100
2006-03-30 08:23 51°32.947 2°57.844 -999 185 8.2 99950 100
2006-03-30 08:24 51°33.086 2°58.067 -999 206 8.3 99950 100
2006-03-30 08:25 51°33.228 2°58.279 -999 217 8.2 99950 99
2006-03-30 08:26 51°33.371 2°58.502 -999 199 8.3 99960 100
2006-03-30 08:27 51°33.515 2°58.707 -999 195 8.1 99950 99
2006-03-30 08:28 51°33.659 2°58.935 -999 184 8.1 99950 99
2006-03-30 08:29 51°33.8 2°59.159 -999 213 8.4 99950 100
2006-03-30 08:30 51°33.944 2°59.369 -999 190 8.3 99950 100
2006-03-30 08:31 51°34.083 2°59.593 -999 209 8.4 99950 100
2006-03-30 08:32 51°34.225 2°59.819 -999 224 8.3 99960 99
2006-03-30 08:33 51°34.365 3°0.028 -999 215 8.2 99940 99
2006-03-30 08:34 51°34.502 3°0.244 -999 206 8.2 99950 100
2006-03-30 08:35 51°34.672 3°0.355 -999 262 8.2 99950 99
2006-03-30 08:36 51°34.855 3°0.245 -999 297 8 99920 99
2006-03-30 08:37 51°34.982 2°59.984 -999 38 8 99870 99
2006-03-30 08:38 51°34.997 2°59.646 -999 333 8 99870 99
2006-03-30 08:39 51°34.917 2°59.321 -999 359 8 99900 100
2006-03-30 08:40 51°34.783 2°59.042 -999 2 8 99920 100
2006-03-30 08:41 51°34.662 2°58.788 -999 -999 8 99910 100
2006-03-30 08:42 51°34.525 2°58.496 -999 6 7.9 99930 100
2006-03-30 08:43 51°34.401 2°58.272 -999 2 8 99940 100
2006-03-30 08:44 51°34.291 2°58.076 -999 6 8 99940 100
2006-03-30 08:45 51°34.182 2°57.874 -999 6 7.9 99940 100
2006-03-30 08:46 51°34.071 2°57.669 -999 2 8 99940 100
2006-03-30 08:47 51°33.956 2°57.457 -999 8 8 99940 100
2006-03-30 08:48 51°33.845 2°57.242 -999 4 8 99950 100
2006-03-30 08:49 51°33.732 2°57.012 -999 360 8 99930 100
2006-03-30 08:50 51°33.624 2°56.784 -999 359 7.9 99930 100
2006-03-30 08:51 51°33.509 2°56.567 -999 4 7.9 99940 100
2006-03-30 08:52 51°33.389 2°56.346 -999 5 7.9 99950 100
2006-03-30 08:53 51°33.263 2°56.122 -999 8 7.9 99940 100
2006-03-30 08:54 51°33.123 2°55.924 -999 13 7.9 99950 100
2006-03-30 08:55 51°32.988 2°55.725 -999 12 8 99940 100
2006-03-30 08:56 51°32.851 2°55.525 -999 8 8 99950 100
2006-03-30 08:57 51°32.717 2°55.325 -999 8 8 99950 100
2006-03-30 08:58 51°32.589 2°55.131 -999 8 8 99950 100
2006-03-30 08:59 51°32.458 2°54.943 -999 6 8 99950 100
2006-03-30 09:00 51°32.31 2°54.78 -999 21 8 99970 100
2006-03-30 09:01 51°32.157 2°54.625 -999 15 8 99960 100
2006-03-30 09:02 51°32.009 2°54.476 -999 17 8 99960 100
2006-03-30 09:03 51°31.863 2°54.327 -999 16 7.9 99960 100
2006-03-30 09:04 51°31.708 2°54.161 -999 16 7.9 99950 100
2006-03-30 09:05 51°31.553 2°53.999 -999 16 7.9 99960 100
2006-03-30 09:06 51°31.413 2°53.852 -999 16 7.9 99970 100
2006-03-30 09:07 51°31.257 2°53.708 -999 23 7.9 99950 100
2006-03-30 09:08 51°31.097 2°53.596 -999 24 7.9 99950 100
2006-03-30 09:09 51°30.942 2°53.487 -999 24 7.9 99960 100
2006-03-30 09:10 51°30.78 2°53.366 -999 22 7.9 99950 100
2006-03-30 09:11 51°30.614 2°53.233 -999 21 7.9 99970 100
2006-03-30 09:12 51°30.451 2°53.1 -999 27 7.9 99960 100
2006-03-30 09:13 51°30.285 2°53.013 -999 28 7.9 99970 100
2006-03-30 09:14 51°30.107 2°52.929 -999 26 7.9 99960 100
2006-03-30 09:15 51°29.932 2°52.844 -999 30 7.9 99960 100
2006-03-30 09:16 51°29.763 2°52.757 -999 30 7.9 99960 100
2006-03-30 09:17 51°29.594 2°52.657 -999 31 7.9 99950 100
2006-03-30 09:18 51°29.421 2°52.556 -999 26 8 99980 100
2006-03-30 09:19 51°29.246 2°52.455 -999 30 7.9 99950 100
2006-03-30 09:20 51°29.07 2°52.357 -999 32 7.9 99970 100
2006-03-30 09:21 51°28.898 2°52.26 -999 29 7.9 99970 100
2006-03-30 09:22 51°28.721 2°52.16 -999 30 7.9 99980 100
2006-03-30 09:23 51°28.546 2°52.065 -999 24 7.9 99970 100
2006-03-30 09:24 51°28.377 2°51.974 -999 23 7.9 99980 100
2006-03-30 09:25 51°28.206 2°51.877 -999 22 7.9 99970 100
2006-03-30 09:26 51°28.034 2°51.782 -999 30 7.9 99990 100
2006-03-30 09:27 51°27.859 2°51.686 -999 24 7.9 99990 100
2006-03-30 09:28 51°27.682 2°51.591 -999 25 8 99970 100
2006-03-30 09:29 51°27.51 2°51.495 -999 26 8 99950 100
2006-03-30 09:30 51°27.338 2°51.405 -999 33 8 100010 100
2006-03-30 09:31 51°27.162 2°51.305 -999 29 8 99980 100
2006-03-30 09:32 51°26.982 2°51.206 -999 25 8.1 99960 100
2006-03-30 09:33 51°26.804 2°51.106 -999 26 8.1 99990 100
2006-03-30 09:34 51°26.626 2°51.009 -999 28 8.1 99980 100
2006-03-30 09:35 51°26.449 2°50.911 -999 32 8.1 100000 100
2006-03-30 09:36 51°26.273 2°50.817 -999 28 8.1 100000 100
2006-03-30 09:37 51°26.098 2°50.719 -999 28 8.2 99980 100
2006-03-30 09:38 51°25.922 2°50.617 -999 35 8.2 99980 100
2006-03-30 09:39 51°25.747 2°50.518 -999 30 8.3 99980 100
2006-03-30 09:40 51°25.572 2°50.418 -999 31 8.3 99980 100
2006-03-30 09:41 51°25.396 2°50.316 -999 30 8.3 99990 100
2006-03-30 09:42 51°25.215 2°50.207 -999 32 8.3 100000 100
2006-03-30 09:43 51°25.041 2°50.113 -999 31 8.3 100010 100
2006-03-30 09:44 51°24.864 2°50.011 -999 33 8.4 100000 100
2006-03-30 09:45 51°24.69 2°49.916 -999 32 8.4 100020 100
2006-03-30 09:46 51°24.514 2°49.81 -999 28 8.4 100000 100
2006-03-30 09:47 51°24.342 2°49.71 -999 29 8.4 99990 100
2006-03-30 09:48 51°24.166 2°49.607 -999 28 8.4 100010 100
2006-03-30 09:49 51°23.989 2°49.504 -999 28 8.5 100000 100
2006-03-30 09:50 51°23.812 2°49.401 -999 37 8.5 100020 100
2006-03-30 09:51 51°23.638 2°49.309 -999 27 8.5 99990 100
2006-03-30 09:52 51°23.456 2°49.211 -999 37 8.5 100000 100
2006-03-30 09:53 51°23.274 2°49.111 -999 31 8.5 100000 100
2006-03-30 09:54 51°23.089 2°49.014 -999 28 8.5 100020 100
2006-03-30 09:55 51°22.906 2°48.921 -999 31 8.5 100010 100
2006-03-30 09:56 51°22.721 2°48.827 -999 29 8.5 100010 100
2006-03-30 09:57 51°22.532 2°48.741 -999 28 8.5 100010 100
2006-03-30 09:58 51°22.359 2°48.655 -999 32 8.6 100030 100
2006-03-30 09:59 51°22.174 2°48.558 -999 31 8.6 100020 100
2006-03-30 10:00 51°21.985 2°48.461 -999 30 8.6 100030 100
2006-03-30 10:01 51°21.799 2°48.37 -999 30 8.7 100030 100
2006-03-30 10:02 51°21.612 2°48.271 -999 30 8.7 100030 100
2006-03-30 10:03 51°21.424 2°48.191 -999 42 8.7 100020 100
2006-03-30 10:04 51°21.228 2°48.2 -999 50 8.7 100010 100
2006-03-30 10:05 51°21.032 2°48.222 -999 62 8.7 100000 100
2006-03-30 10:06 51°20.852 2°48.361 -999 81 8.7 100000 99
2006-03-30 10:07 51°20.688 2°48.548 -999 87 8.7 100020 99
2006-03-30 10:08 51°20.519 2°48.729 -999 81 8.7 100040 99
2006-03-30 10:09 51°20.343 2°48.921 -999 81 8.7 100020 99
2006-03-30 10:10 51°20.168 2°49.105 -999 80 8.8 100020 99
2006-03-30 10:11 51°20.012 2°49.281 -999 83 8.8 100030 99
2006-03-30 10:12 51°19.863 2°49.451 -999 82 8.8 100050 99
2006-03-30 10:13 51°19.715 2°49.623 -999 83 8.9 100030 99
2006-03-30 10:14 51°19.566 2°49.795 -999 87 9 100030 99
2006-03-30 10:15 51°19.42 2°49.973 -999 83 8.9 100040 99
2006-03-30 10:16 51°19.271 2°50.15 -999 90 9 100060 99
2006-03-30 10:17 51°19.12 2°50.325 -999 81 9.1 100060 99
2006-03-30 10:18 51°18.969 2°50.503 -999 89 9.1 100070 99
2006-03-30 10:19 51°18.817 2°50.681 -999 87 9.1 100070 99
2006-03-30 10:20 51°18.66 2°50.85 -999 85 9.1 100080 99
2006-03-30 10:21 51°18.507 2°51.027 -999 78 9 100080 99
2006-03-30 10:22 51°18.351 2°51.196 -999 85 9.1 100080 98
2006-03-30 10:23 51°18.195 2°51.372 -999 82 9.1 100090 98
2006-03-30 10:24 51°18.04 2°51.548 -999 81 9.1 100080 98
2006-03-30 10:25 51°17.888 2°51.729 -999 79 9.1 100100 98
2006-03-30 10:26 51°17.735 2°51.91 -999 79 9.1 100090 98
2006-03-30 10:27 51°17.577 2°52.078 -999 62 9.1 100080 98
2006-03-30 10:28 51°17.406 2°52.212 -999 59 9.1 100080 98
2006-03-30 10:29 51°17.232 2°52.34 -999 58 9.1 100080 98
2006-03-30 10:30 51°17.06 2°52.474 -999 64 9.2 100080 98
2006-03-30 10:31 51°16.887 2°52.61 -999 70 9.2 100070 98
2006-03-30 10:32 51°16.714 2°52.746 -999 67 9.3 100070 98
2006-03-30 10:33 51°16.543 2°52.889 -999 74 9.3 100080 98
2006-03-30 10:34 51°16.373 2°53.034 -999 66 9.4 100070 98
2006-03-30 10:35 51°16.203 2°53.178 -999 63 9.3 100070 98
2006-03-30 10:36 51°16.036 2°53.322 -999 68 9.3 100070 97
2006-03-30 10:37 51°15.869 2°53.466 -999 64 9.3 100070 97
2006-03-30 10:38 51°15.704 2°53.612 -999 57 9.3 100070 97
2006-03-30 10:39 51°15.539 2°53.755 -999 61 9.3 100070 97
2006-03-30 10:40 51°15.376 2°53.893 -999 69 9.3 100070 97
2006-03-30 10:41 51°15.214 2°54.035 -999 74 9.5 100060 97
2006-03-30 10:42 51°15.05 2°54.176 -999 64 9.6 100070 97
2006-03-30 10:43 51°14.891 2°54.324 -999 67 9.7 100080 97
2006-03-30 10:44 51°14.74 2°54.492 -999 79 9.8 100090 97
2006-03-30 10:45 51°14.595 2°54.681 -999 80 9.8 100090 97
2006-03-30 10:46 51°14.459 2°54.888 -999 85 9.8 100100 97
2006-03-30 10:47 51°14.348 2°55.129 -999 74 9.9 100110 96
2006-03-30 10:48 51°14.227 2°55.317 -999 79 10 100120 96
2006-03-30 10:49 51°14.116 2°55.413 -999 44 10.3 100120 97
2006-03-30 10:50 51°14.024 2°55.483 -999 72 10.5 100120 97
2006-03-30 10:51 51°13.946 2°55.544 -999 50 10.9 100120 96
2006-03-30 10:52 51°13.87 2°55.603 -999 71 11.2 100120 96
2006-03-30 10:53 51°13.799 2°55.666 -999 39 11.5 100120 95
2006-03-30 10:54 51°13.737 2°55.751 -999 98 11.8 100120 93
2006-03-30 10:55 51°13.683 2°55.849 -999 128 12 100120 92
2006-03-30 10:56 51°13.643 2°55.942 -999 54 12.2 100120 91
2006-03-30 10:57 51°13.617 2°56.025 -999 102 12.3 100120 90
2006-03-30 10:58 51°13.603 2°56.082 -999 125 12.4 100120 89
2006-03-30 10:59 51°13.598 2°56.094 -999 123 12.5 100120 88
2006-03-30 11:00 51°13.599 2°56.094 -999 147 12.6 100130 87